Meteo orario Abikanda

Oggi, 19 Giugno, Sabato

Tempo Temperatura Precipitazioni Vento Pressione Umidità
00:00 +22°C° 0 mm 3 m/s 664 mm Hg 24%
01:00 +21°C° 0 mm 3 m/s 664 mm Hg 24%
02:00 +21°C° 0 mm 3 m/s 664 mm Hg 24%
03:00 +21°C° 0 mm 3 m/s 664 mm Hg 25%
04:00 +21°C° 0 mm 3 m/s 664 mm Hg 25%
05:00 +24°C° 0 mm 2 m/s 664 mm Hg 23%
06:00 +26°C° 0 mm 2 m/s 665 mm Hg 21%
07:00 +28°C° 0 mm 2 m/s 666 mm Hg 19%
08:00 +29°C° 0 mm 2 m/s 666 mm Hg 17%
09:00 +30°C° 0 mm 3 m/s 666 mm Hg 16%
10:00 +32°C° 0 mm 4 m/s 666 mm Hg 14%
11:00 +33°C° 0 mm 5 m/s 666 mm Hg 13%
12:00 +34°C° 0 mm 6 m/s 666 mm Hg 13%
13:00 +34°C° 0 mm 7 m/s 666 mm Hg 12%
14:00 +34°C° 0 mm 6 m/s 666 mm Hg 12%
15:00 +34°C° 0 mm 6 m/s 665 mm Hg 12%
16:00 +34°C° 0 mm 6 m/s 665 mm Hg 12%
17:00 +32°C° 0 mm 6 m/s 665 mm Hg 16%
18:00 +29°C° 0 mm 5 m/s 665 mm Hg 19%
19:00 +27°C° 0 mm 4 m/s 665 mm Hg 22%
20:00 +26°C° 0 mm 4 m/s 665 mm Hg 25%
21:00 +25°C° 0 mm 4 m/s 665 mm Hg 28%
22:00 +22°C° 0 mm 4 m/s 665 mm Hg 31%
23:00 +22°C° 0 mm 3 m/s 664 mm Hg 32%

Domani, 20 Giugno, Domenica

Tempo Temperatura Precipitazioni Vento Pressione Umidità
00:00 +21°C° 0 mm 3 m/s 664 mm Hg 32%
01:00 +20°C° 0 mm 3 m/s 664 mm Hg 33%
02:00 +20°C° 0 mm 3 m/s 663 mm Hg 34%
03:00 +19°C° 0 mm 3 m/s 663 mm Hg 34%
04:00 +19°C° 0 mm 3 m/s 663 mm Hg 35%
05:00 +21°C° 0 mm 3 m/s 664 mm Hg 32%
06:00 +24°C° 0 mm 2 m/s 664 mm Hg 28%
07:00 +26°C° 0 mm 2 m/s 665 mm Hg 25%
08:00 +27°C° 0 mm 3 m/s 665 mm Hg 24%
09:00 +28°C° 0 mm 3 m/s 665 mm Hg 22%
10:00 +29°C° 0 mm 4 m/s 665 mm Hg 20%
11:00 +30°C° 0 mm 4 m/s 665 mm Hg 20%
12:00 +30°C° 0 mm 4 m/s 665 mm Hg 19%
13:00 +32°C° 0 mm 4 m/s 665 mm Hg 18%
14:00 +30°C° 0 mm 5 m/s 665 mm Hg 19%
15:00 +30°C° 0 mm 5 m/s 665 mm Hg 20%
16:00 +29°C° 0 mm 5 m/s 665 mm Hg 20%
17:00 +27°C° 0 mm 4 m/s 665 mm Hg 23%
18:00 +25°C° 0 mm 4 m/s 665 mm Hg 25%
19:00 +22°C° 0 mm 4 m/s 664 mm Hg 27%
20:00 +22°C° 0 mm 4 m/s 664 mm Hg 28%
21:00 +21°C° 0 mm 3 m/s 664 mm Hg 29%
22:00 +20°C° 0 mm 3 m/s 664 mm Hg 30%
23:00 +20°C° 0 mm 3 m/s 664 mm Hg 30%

Dopodomani, 21 Giugno, Lunedi

Tempo Temperatura Precipitazioni Vento Pressione Umidità
00:00 +19°C° 0 mm 3 m/s 664 mm Hg 30%
01:00 +19°C° 0 mm 3 m/s 663 mm Hg 29%
02:00 +19°C° 0 mm 3 m/s 663 mm Hg 30%
03:00 +18°C° 0 mm 3 m/s 664 mm Hg 31%
04:00 +18°C° 0 mm 3 m/s 664 mm Hg 31%
05:00 +20°C° 0 mm 2 m/s 664 mm Hg 29%
06:00 +23°C° 0 mm 2 m/s 665 mm Hg 27%
07:00 +25°C° 0 mm 2 m/s 666 mm Hg 24%
08:00 +27°C° 0 mm 2 m/s 666 mm Hg 23%
09:00 +28°C° 0 mm 3 m/s 666 mm Hg 21%
10:00 +29°C° 0 mm 3 m/s 667 mm Hg 19%
11:00 +30°C° 0 mm 3 m/s 667 mm Hg 18%
12:00 +32°C° 0 mm 4 m/s 667 mm Hg 17%
13:00 +32°C° 0 mm 4 m/s 667 mm Hg 17%
14:00 +32°C° 0 mm 4 m/s 667 mm Hg 16%
15:00 +32°C° 0 mm 4 m/s 667 mm Hg 16%
16:00 +30°C° 0 mm 4 m/s 667 mm Hg 16%
17:00 +28°C° 0 mm 4 m/s 667 mm Hg 18%
18:00 +26°C° 0 mm 3 m/s 666 mm Hg 20%
19:00 +24°C° 0 mm 3 m/s 666 mm Hg 23%
20:00 +22°C° 0 mm 3 m/s 666 mm Hg 24%
21:00 +22°C° 0 mm 3 m/s 666 mm Hg 25%
22:00 +21°C° 0 mm 3 m/s 666 mm Hg 25%
23:00 +21°C° 0 mm 3 m/s 666 mm Hg 26%

22 Giugno, Martedi

Tempo Temperatura Precipitazioni Vento Pressione Umidità
00:00 +21°C° 0 mm 3 m/s 665 mm Hg 27%
01:00 +20°C° 0 mm 3 m/s 665 mm Hg 28%
02:00 +20°C° 0 mm 3 m/s 665 mm Hg 29%
03:00 +20°C° 0 mm 3 m/s 665 mm Hg 30%
04:00 +20°C° 0 mm 3 m/s 665 mm Hg 31%
05:00 +22°C° 0 mm 3 m/s 666 mm Hg 28%
06:00 +25°C° 0 mm 2 m/s 666 mm Hg 26%
07:00 +27°C° 0 mm 2 m/s 667 mm Hg 23%
08:00 +28°C° 0 mm 2 m/s 667 mm Hg 21%
09:00 +30°C° 0 mm 3 m/s 667 mm Hg 19%
10:00 +31°C° 0 mm 3 m/s 668 mm Hg 17%
11:00 +33°C° 0 mm 3 m/s 668 mm Hg 16%
12:00 +34°C° 0 mm 3 m/s 667 mm Hg 15%
13:00 +34°C° 0 mm 4 m/s 667 mm Hg 15%
14:00 +34°C° 0 mm 4 m/s 667 mm Hg 16%
15:00 +34°C° 0 mm 4 m/s 667 mm Hg 16%
16:00 +33°C° 0 mm 4 m/s 667 mm Hg 17%
17:00 +30°C° 0 mm 4 m/s 667 mm Hg 21%
18:00 +28°C° 0 mm 4 m/s 666 mm Hg 24%
19:00 +26°C° 0 mm 4 m/s 666 mm Hg 28%
20:00 +25°C° 0 mm 3 m/s 666 mm Hg 28%
21:00 +24°C° 0 mm 3 m/s 666 mm Hg 29%
22:00 +22°C° 0 mm 3 m/s 666 mm Hg 29%
23:00 +21°C° 0 mm 3 m/s 665 mm Hg 30%

23 Giugno, Mercoledi

Tempo Temperatura Precipitazioni Vento Pressione Umidità
00:00 +21°C° 0 mm 3 m/s 665 mm Hg 30%
01:00 +21°C° 0 mm 3 m/s 665 mm Hg 30%
02:00 +21°C° 0 mm 3 m/s 665 mm Hg 31%
03:00 +20°C° 0 mm 3 m/s 665 mm Hg 31%
04:00 +20°C° 0 mm 3 m/s 665 mm Hg 31%
05:00 +23°C° 0 mm 2 m/s 665 mm Hg 28%
06:00 +25°C° 0 mm 2 m/s 666 mm Hg 26%
07:00 +27°C° 0 mm 2 m/s 666 mm Hg 23%
08:00 +28°C° 0 mm 2 m/s 667 mm Hg 21%
09:00 +30°C° 0 mm 3 m/s 667 mm Hg 19%
10:00 +31°C° 0 mm 3 m/s 667 mm Hg 18%
11:00 +33°C° 0 mm 3 m/s 667 mm Hg 17%
12:00 +34°C° 0 mm 4 m/s 668 mm Hg 16%
13:00 +34°C° 0 mm 4 m/s 668 mm Hg 16%
14:00 +34°C° 0 mm 4 m/s 668 mm Hg 15%
15:00 +33°C° 0 mm 4 m/s 667 mm Hg 15%
16:00 +33°C° 0 mm 3 m/s 667 mm Hg 15%
17:00 +30°C° 0 mm 3 m/s 667 mm Hg 17%
18:00 +28°C° 0 mm 3 m/s 667 mm Hg 20%
19:00 +25°C° 0 mm 3 m/s 666 mm Hg 22%
20:00 +25°C° 0 mm 3 m/s 666 mm Hg 23%
21:00 +24°C° 0 mm 3 m/s 666 mm Hg 24%
22:00 +22°C° 0 mm 3 m/s 666 mm Hg 24%
23:00 +22°C° 0 mm 3 m/s 666 mm Hg 26%

24 Giugno, Giovedi

Tempo Temperatura Precipitazioni Vento Pressione Umidità
00:00 +21°C° 0 mm 3 m/s 665 mm Hg 28%
01:00 +21°C° 0 mm 3 m/s 665 mm Hg 29%
02:00 +21°C° 0 mm 3 m/s 665 mm Hg 30%
03:00 +20°C° 0 mm 3 m/s 665 mm Hg 30%
04:00 +20°C° 0 mm 3 m/s 665 mm Hg 30%
05:00 +22°C° 0 mm 3 m/s 665 mm Hg 28%
06:00 +25°C° 0 mm 3 m/s 666 mm Hg 25%
07:00 +27°C° 0 mm 2 m/s 667 mm Hg 23%
08:00 +28°C° 0 mm 3 m/s 667 mm Hg 21%
09:00 +30°C° 0 mm 3 m/s 667 mm Hg 19%
10:00 +31°C° 0 mm 3 m/s 667 mm Hg 18%
11:00 +33°C° 0 mm 4 m/s 667 mm Hg 17%
12:00 +33°C° 0 mm 4 m/s 667 mm Hg 16%
13:00 +34°C° 0 mm 5 m/s 667 mm Hg 16%
14:00 +34°C° 0 mm 5 m/s 667 mm Hg 16%
15:00 +33°C° 0 mm 5 m/s 667 mm Hg 17%
16:00 +33°C° 0 mm 5 m/s 667 mm Hg 17%
17:00 +30°C° 0 mm 5 m/s 666 mm Hg 21%
18:00 +28°C° 0 mm 4 m/s 666 mm Hg 24%
19:00 +26°C° 0 mm 3 m/s 666 mm Hg 28%
20:00 +25°C° 0 mm 3 m/s 666 mm Hg 29%
21:00 +24°C° 0 mm 3 m/s 665 mm Hg 30%
22:00 +24°C° 0 mm 3 m/s 665 mm Hg 31%
23:00 +22°C° 0 mm 3 m/s 665 mm Hg 35%
Mostrare altro

Abbiamo bisogno del tuo consenso

Meteoprog e i nostri fornitori di servizi possono memorizzare e accedere a dati personali come cookie, identificatori di dispositivi o altre tecnologie simili sul tuo dispositivo e possono elaborare tali dati per personalizzare i contenuti e gli annunci, nonché fornire funzionalità dei social media e analizzarne il traffico.

  • Archiviare e/o accedere alle informazioni sul tuo dispositivo

    Cookie, identificatori di dispositivi o altre informazioni possono essere memorizzati o resi accessibili sul tuo dispositivo per le finalità sopra indicate.

  • Annunci e contenuti personalizzati, misurazione di annunci e contenuti, approfondimenti sul pubblico e sviluppo di prodotti

    Gli annunci e i contenuti possono essere personalizzati in base a un profilo. È possibile aggiungere più dati per personalizzare meglio annunci e contenuti. È possibile misurare il rendimento degli annunci e dei contenuti. È possibile ricavare informazioni sul pubblico che ha visto gli annunci e i contenuti. Tali dati possono essere utilizzati per sviluppare o migliorare l'esperienza, i sistemi e il software dell'utente.

Cliccando su “Accetto”, acconsenti all'uso di cookie, identificatori di dispositivo, web beacon o altre tecnologie simili. Puoi modificare le impostazioni nel browser del tuo dispositivo.

Per determinati scopi, è possibile fare affidamento su interessi legali, piuttosto che sul consenso. Puoi approfondire questo argomento consultando la nostra Informativa sulla privacy e sui cookie.